Orbital Elements at Epoch 2459000.5 (2020-May-31.0) TDB
Reference: JPL 22 (heliocentric ecliptic J2000)
Element | Value | Uncertainty (1-sigma) | Units |
e | .3325466184801801 | 3.5347e-08 | |
a | 2.642129324476958 | 2.329e-08 | au |
q | 1.763498152034823 | 9.6784e-08 | au |
i | 6.009662999348754 | 6.9626e-06 | deg |
node | 4.258157403930792 | 4.6154e-05 | deg |
peri | 246.6540734443385 | 4.8746e-05 | deg |
M | 291.8330800834426 | 1.9675e-05 | deg |
tp | 2459297.530265930601 (2021-Mar-24.03026593) | 8.8885e-05 | TDB |
period | 1568.662569262473 4.29 | 2.0741e-05 5.679e-08 | d yr |
n | .2294948620908694 | 3.0344e-09 | deg/d |
Q | 3.520760496919093 | 3.1035e-08 | au |
|
| | Orbit Determination Parameters
Additional Information
|